Location: Hillern
(53.0557°N, 9.8577°E)
Time: 06:40:36
(UTC+00:00)

Cosmos 1470 - Pass Details

Date: 19 May 2025
Orbit: 455 x 466 km, 82.5° (Epoch: 14 June)

Event Time Altitude Azimuth Distance (km) Brightness Sun altitude
Rises 23:01:11 0° 344° (NNW) 2,520 7.8 -16.9°
Reaches altitude 10° 23:03:19 10° 339° (NNW) 1,640 6.4 -16.9°
Maximum altitude 23:06:47 49° 264° (W) 619 3.0 -16.9°
Enters shadow 23:07:49 36° 215° (SW) 768 3.1 -16.9°
